レナード彗星

C/2022 W3 ( Leonard )

English version
Home page
Updated on September 2, 2023

---------------------------------------------------------------------

・ プロフィール

発見日 2022年11月26日
発見光度 19.7等
発見者 Gregory J. Leonard (Mount Lemmon Survey)

・ 写真集

・ 軌道要素

Epoch 2023 Sept. 13.0 TT = JDT 2460200.5
T 2023 June 22.77840 TT                                 Rudenko
q   1.3977314            (2000.0)            P               Q
z  +0.0035506      Peri.  116.52402     +0.45558678     +0.52435110
 +/-0.0000010      Node   132.26917     -0.51974349     -0.49938912
e   0.9950372      Incl.  103.55782     +0.72270837     -0.68968575
>From 822 observations 2022 Nov. 13-2023 Aug. 27, mean residual 0".8.

・ 星図

・ 光度変化

        m1 = 12.0 + 5 logΔ + 10.0 log r

---------------------------------------------------------------------

軌道要素はM.P.E.C. 2023-Q150に掲載されたものです。
星図はステラナビゲータ Ver.10 (アストロアーツ) で作成したものです。
光度グラフはComet for Windowsで作成したものです。

---------------------------------------------------------------------

Copyright(C) Seiichi Yoshida (comet@aerith.net). All rights reserved.